STARLINK-3943 (52557 NORAD) Tracking and Keplerian Element Data
This shows tracking and keplerian element data for the satellite.
Feedback or suggestion? Click here.
Element | Value |
Catalog | 52557 |
Name | STARLINK-3943 |
Epoch Orbit | 130 |
Epoch Day | 167.08334491 |
Epoch Year | 2022 |
RAAN | 130.4891 |
Inclination | 53.2172 |
Eccentricity | 9.33E-05 |
Argument of Perigee | 47.9635 |
Mean Anonmoly | 46.5523 |
Mean Motion | 15.49900013 |
Decay Rate | -0.00015983 |
L1 | 1 52557U 22051AA 22167.08334491 -.00015983 00000+0 -27408-3 0 9995 |
L2 | 2 52557 53.2172 130.4891 0000933 47.9635 46.5523 15.49900013 1302 |
Live tracking and technical data element details for STARLINK-3943 (NORAD 52557). STARLINK-3943 can be tracked NOW for your location showing map with azimuth and elevation plus other details from your city location.
Track the satellite on the map from your city or location and see movement details for azimuth, elevation, latitude, longitude, range, height, and movement on the map or in text.
IsCatalogInMostPopularTable: catalog: 52557, numindb: 1
Update: records affected: 1
GetName: 52557 STARLINK-3943
Hit Count: updated at: Mon, 27 Jun 2022 05:01:07 GMT